Retour au catalogue

STARLINK-36657

ActifCommunicationsVLEO
NORAD 67835·PAYLOAD·🇺🇸 United States

Lancé Feb 16, 2026 depuis Vandenberg Space Force Base

Loading…

Prochains Passages (prochaines 24 heures)

TLE

FraisSource: CelesTrak SupGP

Époque: Sep 15, 2026, 02:57 UTC

1 67835C 26033Q   26258.12340278 -.00005529  00000+0 -20025-3 0  2585
2 67835  43.0000 276.9597 0001122 260.5935 273.4919 15.27585412    15

Suivez STARLINK-36657 en temps réel avec AllMySat

Download on the App Store